FW7213 Weather Reports


Display with metric or nautical units.
time (UTC)temp
F
wind
direction
speed
MPH
gust
MPH
rain 1hr
in
rain 24hr
in
rain mn
in
humidity
%
barometer
mb
20260903184058 93 186 2.0 6.0 0.00 0.00 0.00 58 1016.2
20260903183557 92 107 2.0 6.0 0.00 0.00 0.00 59 1016.4
20260903183121 92 130 1.0 4.0 0.00 0.00 0.00 64 1016.4
20260903182558 92 148 1.0 4.0 0.00 0.00 0.00 63 1016.5
20260903182102 91 0 1.0 5.0 0.00 0.00 0.00 61 1016.6
20260903181643 91 0 2.0 5.0 0.00 0.00 0.00 65 1016.6
20260903181058 91 98 0.0 5.0 0.00 0.00 0.00 61 1016.7
20260903180558 91 154 1.0 6.0 0.00 0.00 0.00 62 1016.8
20260903180107 91 0 1.0 6.0 0.00 0.00 0.00 61 1016.9
20260903175557 91 101 1.0 6.0 0.00 0.00 0.00 64 1016.9
20260903175103 91 125 2.0 6.0 0.00 0.00 0.00 63 1016.9
20260903174603 92 0 2.0 10.0 0.00 0.00 0.00 65 1017.0
20260903174059 92 134 4.0 10.0 0.00 0.00 0.00 59 1017.0
20260903173603 93 139 1.0 4.0 0.00 0.00 0.00 58 1017.1
20260903173109 93 151 1.0 3.0 0.00 0.00 0.00 58 1017.1
20260903172558 92 169 1.0 7.0 0.00 0.00 0.00 63 1017.2
20260903172057 92 154 1.0 7.0 0.00 0.00 0.00 62 1017.3
20260903171602 92 98 1.0 10.0 0.00 0.00 0.00 63 1017.3
20260903171058 91 42 1.0 10.0 0.00 0.00 0.00 62 1017.4
20260903170558 91 96 2.0 7.0 0.00 0.00 0.00 62 1017.4
20260903170106 91 117 2.0 7.0 0.00 0.00 0.00 63 1017.5
20260903165557 91 94 1.0 5.0 0.00 0.00 0.00 66 1017.5
20260903165058 91 103 1.0 6.0 0.00 0.00 0.00 67 1017.5
20260903164602 91 59 2.0 6.0 0.00 0.00 0.00 62 1017.5
20260903164059 90 139 1.0 6.0 0.00 0.00 0.00 66 1017.6
20260903163558 90 81 2.0 8.0 0.00 0.00 0.00 66 1017.7
20260903163059 90 109 1.0 8.0 0.00 0.00 0.00 64 1017.7
20260903162558 90 107 2.0 8.0 0.00 0.00 0.00 67 1017.8
20260903162058 90 129 1.0 5.0 0.00 0.00 0.00 65 1017.9
20260903161619 90 148 1.0 7.0 0.00 0.00 0.00 70 1017.9
20260903161059 90 107 2.0 7.0 0.00 0.00 0.00 65 1017.9
20260903160558 90 276 0.0 3.0 0.00 0.00 0.00 68 1017.9
20260903160105 89 33 1.0 4.0 0.00 0.00 0.00 71 1017.9
20260903155559 88 297 2.0 4.0 0.00 0.00 0.00 69 1018.1
20260903155058 89 41 0.0 4.0 0.00 0.00 0.00 69 1017.9
20260903154601 88 96 1.0 5.0 0.00 0.00 0.00 72 1017.9
20260903154059 88 0 1.0 5.0 0.00 0.00 0.00 70 1017.8
20260903153558 88 0 1.0 4.0 0.00 0.00 0.00 71 1017.9
20260903153217 88 0 1.0 9.0 0.00 0.00 0.00 72 1017.8
20260903153111 88 0 1.0 9.0 0.00 0.00 0.00 72 1017.8
20260903152559 87 0 0.0 9.0 0.00 0.00 0.00 73 1018.0
20260903152101 87 86 1.0 4.0 0.00 0.00 0.00 75 1017.9
20260903151606 87 82 0.0 3.0 0.00 0.00 0.00 76 1018.0
20260903151058 87 0 0.0 2.0 0.00 0.00 0.00 75 1017.9
20260903150558 87 0 0.0 2.0 0.00 0.00 0.00 78 1017.9
20260903150101 86 345 0.0 2.0 0.00 0.00 0.00 76 1017.9
20260903145558 86 347 0.0 2.0 0.00 0.00 0.00 77 1017.8
20260903145058 86 0 0.0 2.0 0.00 0.00 0.00 80 1017.9
20260903144607 85 89 0.0 4.0 0.00 0.00 0.00 78 1017.9
20260903144058 85 0 1.0 4.0 0.00 0.00 0.00 81 1017.7
20260903143558 84 102 0.0 4.0 0.00 0.00 0.00 83 1017.8
20260903143104 84 86 0.0 4.0 0.00 0.00 0.00 81 1017.8
20260903142559 84 79 0.0 7.0 0.00 0.00 0.00 80 1017.8
20260903142059 83 0 0.0 7.0 0.00 0.00 0.00 81 1017.8
20260903141602 83 98 1.0 7.0 0.00 0.00 0.00 81 1017.8
20260903141059 83 88 1.0 5.0 0.00 0.00 0.00 80 1017.7
20260903140558 83 99 1.0 5.0 0.00 0.00 0.00 80 1017.8
20260903140104 84 103 0.0 6.0 0.00 0.00 0.00 82 1017.8
20260903135558 83 0 1.0 6.0 0.00 0.00 0.00 86 1017.8
20260903135058 83 0 0.0 2.0 0.00 0.00 0.00 86 1017.8
20260903134609 82 0 0.0 3.0 0.00 0.00 0.00 88 1017.6
20260903134058 81 58 0.0 3.0 0.00 0.00 0.00 90 1017.8
20260903133558 80 0 0.0 2.0 0.00 0.00 0.00 88 1017.8
20260903133109 80 0 0.0 1.0 0.00 0.00 0.00 89 1017.7
20260903132557 79 274 0.0 1.0 0.00 0.00 0.00 89 1017.6
20260903132058 79 0 0.0 1.0 0.00 0.00 0.00 90 1017.5
20260903131606 79 0 0.0 1.0 0.00 0.00 0.00 93 1017.5
20260903131057 78 0 0.0 1.0 0.00 0.00 0.00 91 1017.4
20260903130559 78 0 0.0 0.0 0.00 0.00 0.00 91 1017.4
20260903130105 77 0 0.0 0.0 0.00 0.00 0.00 92 1017.3
20260903125558 77 0 0.0 0.0 0.00 0.00 0.00 93 1017.3
20260903125058 76 0 0.0 0.0 0.00 0.00 0.00 93 1017.3
20260903124606 76 0 0.0 0.0 0.00 0.00 0.00 93 1017.3
20260903124058 76 0 0.0 0.0 0.00 0.00 0.00 94 1017.3
20260903123558 76 0 0.0 0.0 0.00 0.00 0.00 94 1017.3
20260903123104 76 0 0.0 0.0 0.00 0.00 0.00 95 1017.3
20260903122558 76 0 0.0 0.0 0.00 0.00 0.00 95 1017.4
20260903122058 75 0 0.0 0.0 0.00 0.00 0.00 95 1017.3
20260903121604 75 0 0.0 0.0 0.00 0.00 0.00 95 1017.3
20260903121056 75 0 0.0 0.0 0.00 0.00 0.00 96 1017.3
20260903120558 75 0 0.0 0.0 0.00 0.00 0.00 96 1017.3
20260903115555 75 0 0.0 0.0 0.00 0.00 0.00 97 1017.3
20260903115055 75 0 0.0 0.0 0.00 0.00 0.00 97 1017.3
20260903114558 75 0 0.0 0.0 0.00 0.00 0.00 97 1017.2
20260903114055 74 0 0.0 0.0 0.00 0.00 0.00 97 1017.2
20260903113559 74 0 0.0 0.0 0.00 0.00 0.00 97 1017.1
20260903113104 74 0 0.0 0.0 0.00 0.00 0.00 97 1017.1
20260903112556 74 0 0.0 0.0 0.00 0.00 0.00 97 1017.1
20260903112056 74 0 0.0 0.0 0.00 0.00 0.00 97 1017.1
20260903111601 74 0 0.0 0.0 0.00 0.00 0.00 97 1017.1
20260903111058 75 0 0.0 0.0 0.00 0.00 0.00 97 1017.1
20260903110602 75 0 0.0 0.0 0.00 0.00 0.00 97 1017.2
20260903110106 75 0 0.0 0.0 0.00 0.00 0.00 97 1017.1
20260903105602 75 0 0.0 0.0 0.00 0.00 0.00 97 1017.1
20260903105058 75 0 0.0 0.0 0.00 0.00 0.00 97 1017.1
20260903104603 75 0 0.0 0.0 0.00 0.00 0.00 97 1017.1
20260903104055 75 0 0.0 0.0 0.00 0.00 0.00 97 1017.0
20260903103556 75 0 0.0 0.0 0.00 0.00 0.00 97 1017.0
20260903103104 75 0 0.0 0.0 0.00 0.00 0.00 97 1017.0
20260903102556 75 0 0.0 0.0 0.00 0.00 0.00 97 1016.9
20260903102054 75 0 0.0 0.0 0.00 0.00 0.00 97 1016.8
20260903101600 75 0 0.0 0.0 0.00 0.00 0.00 97 1016.8
20260903101058 75 0 0.0 0.0 0.00 0.00 0.00 97 1016.7
20260903100558 75 0 0.0 0.0 0.00 0.00 0.00 97 1016.7
20260903095555 75 0 0.0 0.0 0.00 0.00 0.00 97 1016.7
20260903095058 75 0 0.0 0.0 0.00 0.00 0.00 97 1016.7
20260903094610 75 0 0.0 0.0 0.00 0.00 0.00 97 1016.7
20260903094059 75 0 0.0 0.0 0.00 0.00 0.00 97 1016.7
20260903093559 75 0 0.0 0.0 0.00 0.00 0.00 96 1016.7
20260903093104 75 0 0.0 0.0 0.00 0.00 0.00 96 1016.7
20260903092558 75 0 0.0 0.0 0.00 0.00 0.00 96 1016.6
20260903092059 75 0 0.0 0.0 0.00 0.00 0.00 96 1016.6
20260903091607 75 0 0.0 0.0 0.00 0.00 0.00 95 1016.5
20260903091055 75 0 0.0 0.0 0.00 0.00 0.00 95 1016.6
20260903090558 75 0 0.0 0.0 0.00 0.00 0.00 95 1016.7
20260903090108 75 0 0.0 0.0 0.00 0.00 0.00 95 1016.6
20260903085558 75 0 0.0 0.0 0.00 0.00 0.00 95 1016.6
20260903085057 75 0 0.0 0.0 0.00 0.00 0.00 95 1016.6
20260903084603 76 0 0.0 0.0 0.00 0.00 0.00 95 1016.7
20260903084059 76 0 0.0 0.0 0.00 0.00 0.00 94 1016.6
20260903083558 76 0 0.0 0.0 0.00 0.00 0.00 94 1016.6
20260903083108 76 0 0.0 0.0 0.00 0.00 0.00 94 1016.6
20260903082558 76 0 0.0 0.0 0.00 0.00 0.00 94 1016.6
20260903082055 76 0 0.0 0.0 0.00 0.00 0.00 94 1016.6
20260903081608 76 0 0.0 0.0 0.00 0.00 0.00 94 1016.7
20260903081056 76 0 0.0 0.0 0.00 0.00 0.00 94 1016.7
20260903080555 76 0 0.0 0.0 0.00 0.00 0.00 95 1016.6
20260903080126 76 0 0.0 0.0 0.00 0.00 0.00 95 1016.6
20260903075558 76 0 0.0 0.0 0.00 0.00 0.00 95 1016.6
20260903075055 76 0 0.0 0.0 0.00 0.00 0.00 96 1016.6
20260903074607 76 0 0.0 0.0 0.00 0.00 0.00 95 1016.7
20260903074058 76 0 0.0 0.0 0.00 0.00 0.00 95 1016.8
20260903073556 76 0 0.0 0.0 0.00 0.00 0.00 95 1016.8
20260903073119 76 0 0.0 0.0 0.00 0.00 0.00 95 1016.8
20260903072555 76 0 0.0 0.0 0.00 0.00 0.00 95 1016.8
20260903072055 76 0 0.0 0.0 0.00 0.00 0.00 95 1016.8
20260903071603 76 0 0.0 0.0 0.00 0.00 0.00 94 1016.8
20260903071101 76 0 0.0 0.0 0.00 0.00 0.00 95 1016.8
20260903070602 76 0 0.0 0.0 0.00 0.00 0.00 95 1017.0
20260903070110 76 0 0.0 0.0 0.00 0.00 0.00 94 1017.0
20260903065558 76 0 0.0 0.0 0.00 0.00 0.00 94 1017.2
20260903065057 76 0 0.0 0.0 0.00 0.00 0.00 94 1017.2
20260903064603 77 0 0.0 0.0 0.00 0.00 0.00 94 1017.3
20260903064056 77 0 0.0 0.0 0.00 0.00 0.00 94 1017.3
20260903063556 77 0 0.0 0.0 0.00 0.00 0.00 94 1017.3
20260903063126 77 0 0.0 0.0 0.00 0.00 0.00 94 1017.3
20260903062557 77 0 0.0 0.0 0.00 0.00 0.00 94 1017.3
20260903062056 77 0 0.0 0.0 0.00 0.00 0.00 94 1017.3
20260903061603 77 0 0.0 0.0 0.00 0.00 0.00 93 1017.4
20260903061058 77 0 0.0 0.0 0.00 0.00 0.00 93 1017.4
20260903060555 77 0 0.0 0.0 0.00 0.00 0.00 93 1017.5
20260903060108 77 0 0.0 0.0 0.00 0.00 0.00 93 1017.4
20260903055558 77 0 0.0 0.0 0.00 0.00 0.00 93 1017.4
20260903055059 77 0 0.0 0.0 0.00 0.00 0.00 92 1017.5
20260903054604 77 0 0.0 0.0 0.00 0.00 0.00 93 1017.5
20260903054059 77 0 0.0 0.0 0.00 0.00 0.00 92 1017.5
20260903053555 77 0 0.0 0.0 0.00 0.00 0.00 92 1017.5
20260903053103 77 0 0.0 0.0 0.00 0.00 0.00 92 1017.5
20260903052558 77 0 0.0 0.0 0.00 0.00 0.00 92 1017.5
20260903052059 77 0 0.0 0.0 0.00 0.00 0.00 92 1017.4
20260903051610 78 0 0.0 0.0 0.00 0.00 0.00 92 1017.5
20260903051055 78 0 0.0 0.0 0.00 0.00 0.00 91 1017.5
20260903050601 78 0 0.0 0.0 0.00 0.00 0.00 92 1017.4
20260903050111 78 0 0.0 0.0 0.00 0.00 0.00 91 1017.5
20260903045557 78 0 0.0 0.0 0.00 0.00 0.00 91 1017.4
20260903045057 78 0 0.0 0.0 0.00 0.00 0.00 91 1017.6
20260903044605 78 0 0.0 0.0 0.00 0.00 0.00 90 1017.5
20260903044056 78 0 0.0 0.0 0.00 0.00 0.00 90 1017.5
20260903043555 78 0 0.0 0.0 0.00 0.00 0.00 90 1017.6
20260903043111 78 0 0.0 0.0 0.00 0.00 0.00 90 1017.6
20260903042555 78 0 0.0 0.0 0.00 0.00 0.00 90 1017.6
20260903042101 78 0 0.0 0.0 0.00 0.00 0.00 90 1017.5
20260903041608 78 0 0.0 0.0 0.00 0.00 0.00 89 1017.5
20260903041056 78 0 0.0 0.0 0.00 0.00 0.00 89 1017.5
20260903040601 79 0 0.0 0.0 0.00 0.00 0.00 89 1017.6
20260903040105 79 0 0.0 0.0 0.00 0.00 0.00 89 1017.6
20260903035555 79 0 0.0 0.0 0.00 0.00 0.00 88 1017.4
20260903035055 79 0 0.0 0.0 0.00 0.00 0.00 88 1017.5
20260903034559 79 0 0.0 0.0 0.00 0.00 0.00 87 1017.5
20260903034056 79 0 0.0 0.0 0.00 0.00 0.00 87 1017.5
20260903033555 79 0 0.0 0.0 0.00 0.00 0.00 87 1017.5
20260903033107 80 0 0.0 0.0 0.00 0.00 0.00 87 1017.6
20260903032558 80 0 0.0 0.0 0.00 0.00 0.00 86 1017.5
20260903032058 80 0 0.0 0.0 0.00 0.00 0.00 86 1017.6
20260903031601 80 0 0.0 0.0 0.00 0.00 0.00 85 1017.5
20260903031056 81 0 0.0 0.0 0.00 0.00 0.00 84 1017.6
20260903030556 81 0 0.0 0.0 0.00 0.00 0.00 83 1017.5
20260903030110 81 0 0.0 0.0 0.00 0.00 0.00 83 1017.5
20260903025555 81 0 0.0 0.0 0.00 0.00 0.00 83 1017.5
20260903025055 81 0 0.0 0.0 0.00 0.00 0.00 82 1017.4
20260903024608 81 0 0.0 0.0 0.00 0.00 0.00 82 1017.4
20260903024055 81 0 0.0 0.0 0.00 0.00 0.00 82 1017.3
20260903023559 81 0 0.0 0.0 0.00 0.00 0.00 81 1017.3
20260903023108 81 0 0.0 0.0 0.00 0.00 0.00 81 1017.3
20260903022554 82 0 0.0 0.0 0.00 0.00 0.00 81 1017.3
20260903022056 82 0 0.0 0.0 0.00 0.00 0.00 81 1017.3
20260903021604 82 0 0.0 0.0 0.00 0.00 0.00 80 1017.2
20260903021058 82 0 0.0 0.0 0.00 0.00 0.00 80 1017.1
20260903020558 83 0 0.0 0.0 0.00 0.00 0.00 79 1017.1
20260903020105 83 0 0.0 1.0 0.00 0.00 0.00 79 1017.1
20260903015600 83 0 0.0 1.0 0.00 0.00 0.00 78 1017.0
20260903015054 83 0 0.0 1.0 0.00 0.00 0.00 77 1017.1
20260903014602 83 0 0.0 1.0 0.00 0.00 0.00 76 1017.0
20260903014058 84 0 0.0 0.0 0.00 0.00 0.00 75 1016.9
20260903013559 84 0 0.0 0.0 0.00 0.00 0.00 79 1016.8
20260903013109 84 0 0.0 1.0 0.00 0.00 0.00 79 1016.8
20260903012556 85 0 0.0 1.0 0.00 0.00 0.00 77 1016.6
20260903012055 85 0 0.0 1.0 0.00 0.00 0.00 72 1016.6
20260903011605 84 145 0.0 1.0 0.00 0.00 0.00 72 1016.6
20260903011055 84 0 0.0 1.0 0.00 0.00 0.00 79 1016.5
20260903010554 84 0 0.0 0.0 0.00 0.00 0.00 81 1016.6
20260903010104 84 0 0.0 0.0 0.00 0.00 0.00 76 1016.5
20260903005555 85 0 0.0 0.0 0.00 0.00 0.00 77 1016.4
20260903005059 85 0 0.0 0.0 0.00 0.00 0.00 76 1016.3
20260903004618 85 0 0.0 0.0 0.00 0.00 0.00 75 1016.2
20260903004058 86 0 0.0 0.0 0.00 0.00 0.00 75 1016.1
20260903003556 86 0 0.0 0.0 0.00 0.00 0.00 74 1016.1
20260903003123 87 0 0.0 0.0 0.00 0.00 0.00 74 1016.1
20260903002555 87 0 0.0 0.0 0.00 0.00 0.00 71 1016.0
20260903002055 87 0 0.0 0.0 0.00 0.00 0.00 73 1016.0
20260903001607 88 0 0.0 0.0 0.00 0.00 0.00 69 1016.0
20260903001054 89 0 0.0 0.0 0.00 0.00 0.00 70 1016.0
20260903000555 89 0 0.0 0.0 0.00 0.00 0.00 64 1015.9
20260902235559 91 0 0.0 1.0 0.00 0.00 0.00 62 1015.9
20260902235058 91 0 0.0 1.0 0.00 0.00 0.00 58 1015.7
20260902234600 92 0 0.0 1.0 0.00 0.00 0.00 60 1015.9
20260902234055 92 0 0.0 1.0 0.00 0.00 0.00 60 1015.9
20260902233555 93 0 0.0 1.0 0.00 0.00 0.00 56 1015.7
20260902233105 93 0 0.0 1.0 0.00 0.00 0.00 54 1015.7
20260902232555 93 0 0.0 1.0 0.00 0.00 0.00 54 1015.7
20260902232055 94 0 0.0 1.0 0.00 0.00 0.00 54 1015.6
20260902231602 94 0 0.0 1.0 0.00 0.00 0.00 57 1015.6
20260902231059 94 0 0.0 3.0 0.00 0.00 0.00 53 1015.7
20260902230559 94 0 0.0 3.0 0.00 0.00 0.00 51 1015.6
20260902230106 95 0 0.0 3.0 0.00 0.00 0.00 53 1015.5
20260902225558 96 0 0.0 3.0 0.00 0.00 0.00 52 1015.6
20260902225058 96 0 0.0 2.0 0.00 0.00 0.00 53 1015.5
20260902224600 96 97 0.0 1.0 0.00 0.00 0.00 51 1015.5
20260902224055 96 143 0.0 1.0 0.00 0.00 0.00 47 1015.6
20260902223555 97 0 0.0 2.0 0.00 0.00 0.00 50 1015.6
20260902223121 97 0 0.0 2.0 0.00 0.00 0.00 50 1015.5
20260902222555 96 224 0.0 1.0 0.00 0.00 0.00 47 1015.7
20260902222058 97 140 0.0 1.0 0.00 0.00 0.00 49 1015.7
20260902221605 96 86 0.0 1.0 0.00 0.00 0.00 49 1015.8
20260902221059 96 0 0.0 1.0 0.00 0.00 0.00 54 1015.8
20260902220600 97 0 0.0 3.0 0.00 0.00 0.00 47 1015.8
20260902220106 96 0 0.0 3.0 0.00 0.00 0.00 51 1015.9
20260902215558 96 0 0.0 1.0 0.00 0.00 0.00 53 1016.0
20260902215059 95 0 0.0 1.0 0.00 0.00 0.00 52 1016.0
20260902214604 96 0 0.0 2.0 0.00 0.00 0.00 53 1016.0
20260902214058 95 0 0.0 5.0 0.00 0.00 0.00 52 1016.1
20260902213556 95 82 0.0 5.0 0.00 0.00 0.00 55 1016.1
20260902213100 96 87 0.0 2.0 0.00 0.00 0.00 48 1016.2
20260902212559 96 0 0.0 3.0 0.00 0.00 0.00 52 1016.3
20260902212055 97 152 1.0 4.0 0.00 0.00 0.00 52 1016.3
20260902211604 97 0 1.0 4.0 0.00 0.00 0.00 52 1016.3
20260902211054 96 39 1.0 4.0 0.00 0.00 0.00 50 1016.4
20260902210555 97 86 1.0 4.0 0.00 0.00 0.00 48 1016.5
20260902210106 97 0 1.0 4.0 0.00 0.00 0.00 51 1016.5
20260902205554 96 180 2.0 4.0 0.00 0.00 0.00 48 1016.6
20260902205057 97 70 0.0 5.0 0.00 0.00 0.00 51 1016.6
20260902204637 97 138 2.0 5.0 0.00 0.00 0.00 51 1016.6
20260902204058 96 137 2.0 4.0 0.00 0.00 0.00 54 1016.6
20260902203558 96 144 2.0 4.0 0.00 0.00 0.00 55 1016.6
20260902203100 96 161 2.0 4.0 0.00 0.00 0.00 51 1016.6
20260902202555 96 114 2.0 6.0 0.00 0.00 0.00 52 1016.7
20260902202055 95 0 0.0 6.0 0.00 0.00 0.00 55 1016.6
20260902201606 95 133 2.0 5.0 0.00 0.00 0.00 51 1016.7
20260902201059 95 0 0.0 2.0 0.00 0.00 0.00 50 1016.8
20260902200555 94 0 0.0 3.0 0.00 0.00 0.00 56 1016.7
20260902200105 93 0 0.0 3.0 0.00 0.00 0.00 55 1016.9
20260902195559 94 93 0.0 3.0 0.00 0.00 0.00 57 1017.0
20260902195059 95 95 1.0 4.0 0.00 0.00 0.00 55 1017.0
20260902194559 96 122 0.0 4.0 0.00 0.00 0.00 55 1017.0
20260902194055 96 143 2.0 6.0 0.00 0.00 0.00 50 1017.1
20260902193558 96 137 2.0 6.0 0.00 0.00 0.00 54 1017.2
20260902193108 96 98 2.0 4.0 0.00 0.00 0.00 55 1017.4
20260902192557 96 141 1.0 3.0 0.00 0.00 0.00 51 1017.3
20260902192055 96 15 1.0 8.0 0.00 0.00 0.00 55 1017.4
20260902191607 96 53 1.0 8.0 0.00 0.00 0.00 56 1017.5
20260902191059 96 110 1.0 4.0 0.00 0.00 0.00 54 1017.6
20260902190558 97 120 1.0 4.0 0.00 0.00 0.00 51 1017.7
20260902190105 96 114 1.0 3.0 0.00 0.00 0.00 56 1017.6
20260902185558 95 72 1.0 7.0 0.00 0.00 0.00 51 1017.7
20260902185059 95 121 1.0 7.0 0.00 0.00 0.00 53 1017.9
20260902184608 95 148 4.0 7.0 0.00 0.00 0.00 53 1018.0